This is the latest recevied weather packets stored in our database for station/object W8MRL. If no packets are shown the sender has not sent any weather packets the latest 10 day(s).
| Time | Temp. | Humidity | Pressure | Rain* | Wind** | Luminosity | Snow |
|---|---|---|---|---|---|---|---|
| 1777228235 | 16.11° C | 72% | 1021.6 hPa | 0 mm | - | - | - |
| 1777227319 | 15.56° C | 77% | 1021.8 hPa | 0 mm | - | - | - |
| 1777226415 | 13.89° C | 77% | 1021.7 hPa | 0 mm | - | - | - |
| 1777225514 | 14.44° C | 76% | 1021.8 hPa | 0 mm | - | - | - |
| 1777224611 | 13.89° C | 77% | 1021.8 hPa | 0 mm | - | - | - |
| 1777223710 | 13.33° C | 80% | 1021.7 hPa | 0 mm | - | - | - |
| 1777222810 | 12.78° C | 79% | 1022 hPa | 0 mm | - | - | - |
| 1777221913 | 12.78° C | 81% | 1022 hPa | 0 mm | - | - | - |
| 1777221009 | 12.22° C | 82% | 1022.2 hPa | 0 mm | - | - | - |
| 1777220108 | 11.67° C | 81% | 1022.5 hPa | 0 mm | - | - | - |
| 1777219267 | 11.67° C | 82% | 1022.4 hPa | 0 mm | - | - | - |
| 1777218308 | 11.67° C | 83% | 1022.4 hPa | 0 mm | - | - | - |
| 1777217404 | 11.67° C | 83% | 1022.2 hPa | 0 mm | - | - | - |
| 1777216504 | 11.67° C | 83% | 1022.4 hPa | 0 mm | - | - | - |
| 1777215601 | 11.11° C | 84% | 1022 hPa | 0 mm | - | - | - |
| 1777214765 | 11.11° C | 85% | 1022.3 hPa | 0 mm | - | - | - |
| 1777213868 | 10.56° C | 85% | 1021.9 hPa | 0 mm | - | - | - |
| 1777212974 | 10.56° C | 85% | 1021.8 hPa | 0 mm | - | - | - |
| 1777212058 | 10.56° C | 86% | 1021.6 hPa | 0 mm | - | - | - |
| 1777211157 | 10° C | 86% | 1021.6 hPa | 0 mm | - | - | - |
| 1777210256 | 10° C | 85% | 1021.7 hPa | 0 mm | - | - | - |
| 1777209382 | 10° C | 86% | 1021.6 hPa | 0 mm | - | - | - |
| 1777208454 | 10° C | 86% | 1021.4 hPa | 0 mm | - | - | - |
| 1777207553 | 10° C | 86% | 1021.4 hPa | 0 mm | - | - | - |
| 1777206651 | 10° C | 86% | 1021.2 hPa | 0 mm | - | - | - |
* Rain latest hour (hover to see other rain measurements)
** Current wind speed in m/s (hover to see current wind gust speed)